Starlink 32427

operational
NORAD ID: 61848 Int'l Des: 2024-202 Owner: SPXS Country: US Constellation: starlink
LEOCIRCULAR

About Starlink 32427

Description loading...

Live Position

Loading 3D Globe...

Upcoming Passes

Altitude History

Altitude vs Time

uPlot chart will show altitude changes over time

Two-Line Element Set

1 61848U 24202D 25258.37380804 -.00000596 00000-0 -12162-4 0 9990
2 61848 42.9999 136.9842 0000599 52.6416 307.4490 15.27572982 48648
Epoch: Sep 15, 2025 • Age: 24 hours

Current Status

Altitude 485.9 km
Velocity 7.63 km/s
Sub-Earth Point 43.08°N, 96.33°E
Launch Date Nov 7, 2024
Age 0.8 years
Type internet

Technical Details

Classification Payload
Mass 730.00 kg
Dry Mass 700.00 kg
Total Mass 730.00 kg
Length 0.30 m
Diameter 4.10 m
Span 29.00 m
Shape Box + pan
Manufacturer SPXS
Bus Type Starlink V2M
Phase Status In Orbit
Owner/State SPXS/US

Large Constellations

Loading constellations...